DateTimeUTC,F1_A11,F1_S11,BsB_S11,BsG_S11,BsR_S11,BbsB_S11,BbsG_S11,BbsR_S11,BaB_A11,BaG_A11,BaR_A11,Tu_S11,T_S11,Uu_S11,U_S11,P_S11,T1_A11
2021-12-06T07:00:00Z,00000200,21000000,,,,,,,0000.07,0000.04,-000.40,20.0,26.9,,00.0,0632.7,31.1
2021-12-06T07:01:00Z,00000200,21000000,,,,,,,0000.23,0000.33,0000.13,20.0,26.9,,00.0,0632.7,31.1
2021-12-06T07:02:00Z,00000200,21000000,,,,,,,-000.18,-000.35,-000.02,20.0,26.9,,00.0,0632.7,31.1
2021-12-06T07:03:00Z,00000200,61000000,,,,,,,-000.13,0000.51,-000.01,20.0,26.9,,00.0,0632.7,31.1
2021-12-06T07:04:00Z,00000200,41000000,0000.31,-000.17,0000.22,0000.51,-000.12,0000.10,0000.09,-000.24,0000.24,20.0,26.7,,00.0,0633.5,31.1
2021-12-06T07:05:00Z,00000200,01000000,0000.26,-000.03,0000.44,0000.30,-000.16,0000.18,0000.31,0000.27,0000.13,20.0,26.6,,00.0,0633.6,31.1
2021-12-06T07:06:00Z,00000200,01000000,0000.48,-000.52,-000.06,0000.18,0000.08,0000.16,-000.06,-000.17,-000.17,20.0,26.6,,00.0,0633.6,31.1
2021-12-06T07:07:00Z,00000200,01000000,0000.21,-000.35,-000.13,-000.02,0000.20,0000.10,0000.08,-000.41,-000.01,20.0,26.6,,00.0,0633.6,31.1
2021-12-06T07:08:00Z,00000200,01000000,0000.89,-000.08,0000.02,-000.35,-000.03,0000.27,-000.18,0000.18,0000.11,20.1,26.6,,00.0,0633.6,31.1
2021-12-06T07:09:00Z,00000200,01000000,0000.41,-000.17,0000.07,0000.30,-000.05,0000.17,0000.03,0000.40,0000.03,20.1,26.6,,00.0,0633.6,31.2
2021-12-06T07:10:00Z,00000200,01000000,-000.24,0000.22,-000.06,0000.63,0000.18,0000.28,0000.42,0000.25,0000.19,20.2,26.6,,00.0,0633.6,31.2
2021-12-06T07:11:00Z,00000200,01000000,0000.23,-000.02,-000.20,0000.26,0000.33,-000.22,-000.09,0000.17,-000.02,20.3,26.7,,00.0,0633.6,31.2
2021-12-06T07:12:00Z,00000200,01000000,0000.85,-000.37,0000.01,0000.45,0000.04,-000.22,0000.02,-000.49,0000.30,20.4,26.7,,00.0,0633.6,31.2
2021-12-06T07:13:00Z,00000200,01000000,0000.16,0000.01,-000.07,0000.49,-000.12,0000.20,0000.01,0000.12,-000.22,20.4,26.7,,00.0,0633.6,31.2
2021-12-06T07:14:00Z,00000200,01000000,-000.45,0000.22,0000.01,-000.05,-000.24,0000.17,0000.51,0000.52,0000.19,20.4,26.8,,00.0,0633.6,31.2
2021-12-06T07:15:00Z,00000200,01000000,0000.56,0000.23,0000.04,0000.16,-000.33,-000.19,0000.10,0000.04,0000.18,20.4,26.8,,00.0,0633.6,31.2
2021-12-06T07:16:00Z,00000200,01000000,0001.03,0000.13,-000.00,0000.16,0000.05,-000.28,-000.16,-000.09,-000.13,20.3,26.7,,00.0,0633.7,31.1
2021-12-06T07:17:00Z,00000200,01000000,0000.55,0000.18,0000.08,0000.77,0000.30,-000.38,0000.14,0000.19,0000.13,20.3,26.7,,00.0,0633.6,31.1
2021-12-06T07:18:00Z,00000200,01000000,0000.12,0000.26,-000.08,0000.14,-000.30,0000.05,-000.05,-000.45,-000.30,20.2,26.7,,00.0,0633.7,31.1
2021-12-06T07:19:00Z,00000200,01000000,-000.02,-000.00,0000.04,0000.76,0000.10,0000.31,-000.10,0000.38,0000.09,20.2,26.7,,00.0,0633.7,31.1
2021-12-06T07:20:00Z,00000200,01000000,0000.80,-000.09,-000.05,0000.29,0000.05,0000.15,0000.17,0000.08,0000.30,20.2,26.6,,00.0,0633.7,31.1
2021-12-06T07:21:00Z,00000200,01000000,-000.12,-000.04,0000.17,0000.38,-000.04,0000.03,-000.02,-000.09,-000.05,20.1,26.6,,00.0,0633.7,31.1
2021-12-06T07:22:00Z,00000200,01000000,0000.13,-000.24,0000.22,0000.49,0000.18,0000.16,0000.01,-000.16,-000.02,20.1,26.6,,00.0,0633.7,31.1
2021-12-06T07:23:00Z,00000200,01000000,0000.55,-000.26,0000.34,-000.01,-000.04,0000.28,0000.10,0000.52,0000.09,20.2,26.6,,00.0,0633.7,31.2
2021-12-06T07:24:00Z,00000200,01000000,0000.39,0000.10,0000.14,0000.15,0000.17,-000.30,0000.25,-000.51,0000.03,20.3,26.6,,00.0,0633.7,31.2
2021-12-06T07:25:00Z,00000200,01000000,0000.56,-000.05,-000.11,0000.12,0000.10,-000.01,-000.05,0000.69,0000.21,20.3,26.7,,00.0,0633.8,31.2
2021-12-06T07:26:00Z,00000200,01000000,0000.18,0000.54,0000.09,-000.09,0000.10,-000.30,0000.47,0000.09,0000.13,20.4,26.7,,00.0,0633.8,31.2
2021-12-06T07:27:00Z,00000200,01000000,0000.24,0000.21,-000.20,0000.03,-000.12,-000.38,-000.12,-000.05,0000.17,20.5,26.8,,00.0,0633.8,31.2
2021-12-06T07:28:00Z,00000200,01000000,0000.10,-000.24,0000.13,0000.47,0000.00,0000.14,0000.14,0000.16,-000.21,20.6,26.8,,00.0,0633.8,31.2
2021-12-06T07:29:00Z,00000200,01000000,0000.57,-000.34,0000.13,0000.52,-000.15,-000.02,0000.06,0000.28,0000.05,20.6,26.8,,00.0,0633.8,31.2
2021-12-06T07:30:00Z,00000200,01000000,0000.80,0000.13,-000.41,0000.28,-000.04,-000.32,0000.05,-000.08,0000.17,20.6,26.8,,00.0,0633.8,31.2
2021-12-06T07:31:00Z,00000200,01000000,0000.22,0000.05,-000.20,0000.76,-000.16,-000.19,-000.12,-000.01,-000.12,20.6,26.8,,00.0,0633.8,31.2
2021-12-06T07:32:00Z,00000200,01000000,0000.13,0000.11,0000.04,0000.34,0000.04,-000.03,0000.00,-000.19,-000.22,20.5,26.8,,00.0,0633.8,31.1
2021-12-06T07:33:00Z,00000200,01000000,0000.83,0000.18,0000.12,-000.01,0000.23,0000.11,0000.24,0000.37,0000.28,20.5,26.8,,00.0,0633.8,31.1
2021-12-06T07:34:00Z,00000200,01000000,0000.30,0000.14,0000.03,-000.18,-000.29,-000.20,0000.29,-000.10,0000.04,20.4,26.8,,00.0,0633.8,31.2
2021-12-06T07:35:00Z,00000200,01000000,0000.31,-000.01,0000.13,0000.50,0000.15,0000.09,-000.15,0000.07,0000.18,20.4,26.8,,00.0,0633.8,31.1
2021-12-06T07:36:00Z,00000200,01000000,0001.26,-000.27,-000.19,0000.53,0000.22,-000.21,-000.09,-000.53,-000.35,20.3,26.7,,00.0,0633.8,31.1
2021-12-06T07:37:00Z,00000200,01000000,-000.50,0000.04,0000.01,-000.16,-000.04,-000.02,0000.04,0000.26,-000.04,20.3,26.7,,00.0,0633.8,31.1
2021-12-06T07:38:00Z,00000200,01000000,-000.25,0000.00,-000.18,0001.09,0000.29,-000.11,-000.06,0000.12,0000.09,20.4,26.7,,00.0,0633.9,31.1
2021-12-06T07:39:00Z,00000200,01000000,0000.01,0000.45,0000.27,-000.04,-000.08,-000.11,0000.31,0000.62,0000.45,20.5,26.7,,00.0,0633.9,31.1
2021-12-06T07:40:00Z,00000200,01000000,0000.43,-000.09,0000.11,0000.63,0000.29,-000.15,0000.19,-000.07,-000.27,20.5,26.8,,00.0,0634.0,31.2
2021-12-06T07:41:00Z,00000200,01000000,0000.01,-000.33,0000.07,0000.22,0000.14,0000.22,-000.25,-000.20,0000.27,20.6,26.8,,00.0,0634.0,31.2
2021-12-06T07:42:00Z,00000200,01000000,0000.53,-000.06,0000.23,0000.07,0000.26,0000.45,0000.03,0000.41,-000.01,20.7,26.9,,00.0,0634.0,31.2
2021-12-06T07:43:00Z,00000200,01000000,0000.57,-000.29,-000.13,-000.08,0000.22,0000.27,0000.43,-000.28,0000.29,20.6,26.9,,00.0,0634.0,31.2
2021-12-06T07:44:00Z,00000200,01000000,0000.54,0000.13,0000.05,0000.82,0000.06,-000.13,-000.44,0000.37,-000.02,20.6,26.9,,00.0,0634.0,31.2
2021-12-06T07:45:00Z,00000200,01000000,0000.16,0000.37,-000.08,0000.37,-000.14,0000.06,0000.55,0000.17,-000.22,20.6,26.9,,00.0,0634.0,31.2
2021-12-06T07:46:00Z,00000200,01000000,0000.48,0000.23,0000.28,0000.44,-000.06,-000.11,-000.19,-000.18,0000.13,20.5,26.8,,00.0,0634.0,31.1
2021-12-06T07:47:00Z,00000200,01000000,0000.21,0000.26,-000.23,-000.46,0000.02,-000.03,-000.02,0000.17,0000.18,20.4,26.8,,00.0,0634.0,31.2
2021-12-06T07:48:00Z,00000200,01000000,0000.43,-000.13,0000.03,0000.33,0000.14,-000.02,0000.19,0000.15,0000.12,20.4,26.8,,00.0,0634.0,31.1
2021-12-06T07:49:00Z,00000200,01000000,0000.93,0000.03,-000.06,0000.36,-000.10,0000.07,0000.23,-000.29,-000.05,20.4,26.8,,00.0,0634.0,31.1
2021-12-06T07:50:00Z,00000200,01000000,0000.09,0000.36,0000.01,0000.37,0000.03,0000.15,-000.19,0000.12,-000.05,20.3,26.7,,00.0,0634.0,31.1
2021-12-06T07:51:00Z,00000200,01000000,-000.08,-000.23,0000.11,0000.05,-000.01,-000.20,-000.01,-000.07,0000.01,20.3,26.7,,00.0,0634.0,31.1
2021-12-06T07:52:00Z,00000200,01000000,0000.46,0000.10,-000.08,0000.53,0000.13,0000.21,0000.06,0000.20,0000.01,20.3,26.7,,00.0,0634.0,31.1
2021-12-06T07:53:00Z,00000200,01000000,0000.54,-000.06,0000.36,-000.04,-000.12,-000.00,0000.04,-000.17,-000.03,20.3,26.7,,00.0,0634.0,31.1
2021-12-06T07:54:00Z,00000200,01000000,-000.21,0000.32,-000.01,-000.02,-000.02,0000.18,0000.37,0000.48,0000.32,20.4,26.7,,00.0,0634.0,31.2
2021-12-06T07:55:00Z,00000200,01000000,-000.41,-000.07,0000.19,0000.55,-000.48,0000.31,-000.18,-000.28,-000.28,20.5,26.8,,00.0,0634.0,31.2
2021-12-06T07:56:00Z,00000200,01000000,0000.60,0000.00,0000.09,0000.55,-000.11,0000.01,0000.24,-000.02,0000.34,20.5,26.8,,00.0,0634.0,31.2
2021-12-06T07:57:00Z,00000200,41000000,,,,,,,0000.28,0000.18,0000.03,20.6,26.9,,00.0,0634.0,31.2
2021-12-06T07:58:00Z,00000200,61000000,,,,,,,-000.09,0000.32,0000.13,20.3,26.9,,00.0,0633.2,31.2
2021-12-06T07:59:00Z,00000200,21000000,,,,,,,-000.01,-000.18,-000.14,20.2,27.0,,00.0,0633.1,31.1
